Flag for Denmark Weather past 2 weeks in Aarhus, Denmark

Now
39 °F

Chilly.


Feels Like: 34 °F
Forecast: 34 / 42 °F
Wind: 7 mph from Northwest

Location: Tirstrup

Current Time: Jan 27, 2015 at 4:24:17 PM

Latest Report: Jan 27, 2015 at 3:50 PM


Visibility: N/A

Pressure: 29.95 "Hg

Humidity: 65%

Dew point: 28 °F

Location of AarhusLocation

Historic Weather in Aarhus — Graph

°F

Aarhus temperature yesterday

Maximum temperature yesterday: 39 °F (at 5:20 PM)
Minimum temperature yesterday: 34 °F (at 12:20 AM)
Average temperature yesterday: 37 °F

Past Weeks' High & Low Weather Summary

 TemperatureHumidityPressure
High48 °F (Jan 12, 5:50 PM)100% (Jan 23, 4:20 PM)30.27 "Hg (Jan 23, 4:20 PM)
Low25 °F (Jan 25, 8:50 PM)61% (Jan 27, 12:20 PM)29.18 "Hg (Jan 15, 2:20 PM)
Average36 °F85%29.80 "Hg
* Reported Jan 12 3:20 PM — Jan 27 3:20 PM, Aarhus, Weather by CustomWeather, © 2014

Note: Actual official high and low records may vary slightly from our data, if they occured in-between our weather recording intervals... More about our weather records

Advertising

Aarhus weather history for previous 24 hours

 ConditionsComfort  
Time TempWeatherWind HumidityBarometerVisibility
3:20 PM
Jan 27
39 °FChilly.10 mph65%29.95 "HgN/A
2:50 PM41 °FQuite cool.13 mph61%29.92 "HgN/A
2:20 PM41 °FQuite cool.13 mph61%29.92 "HgN/A
1:50 PM41 °FQuite cool.15 mph61%29.92 "HgN/A
1:20 PM39 °FChilly.12 mph65%29.92 "HgN/A
12:50 PM39 °FChilly.13 mph65%29.92 "HgN/A
12:20 PM41 °FQuite cool.16 mph61%29.92 "HgN/A
11:50 AM39 °FChilly.15 mph70%29.92 "HgN/A
11:20 AM39 °FChilly.13 mph70%29.92 "HgN/A
10:50 AM39 °FChilly.13 mph70%29.89 "HgN/A
10:20 AM37 °FChilly.12 mph75%29.92 "HgN/A
9:50 AM36 °FChilly.14 mph81%29.89 "HgN/A
9:20 AM34 °FChilly.12 mph87%29.89 "HgN/A
8:50 AM34 °FChilly.13 mph87%29.89 "HgN/A
8:20 AM34 °FChilly.10 mph87%29.86 "HgN/A
7:50 AM34 °FChilly.14 mph87%29.86 "HgN/A
7:20 AM34 °FChilly.14 mph87%29.83 "HgN/A
6:50 AM34 °FChilly.12 mph87%29.83 "HgN/A
6:20 AM34 °FChilly.12 mph87%29.80 "HgN/A
5:50 AM34 °FChilly.12 mph87%29.80 "HgN/A
5:20 AM34 °FChilly.12 mph87%29.80 "HgN/A
4:50 AM34 °FChilly.13 mph93%29.80 "HgN/A
4:20 AM36 °FChilly.13 mph87%29.80 "HgN/A
3:50 AM36 °FChilly.13 mph87%29.77 "HgN/A
3:20 AM36 °FChilly.15 mph87%29.77 "HgN/A
2:50 AM36 °FChilly.15 mph87%29.77 "HgN/A
2:20 AM36 °FChilly.15 mph93%29.77 "HgN/A
1:50 AM36 °FChilly.16 mph93%29.77 "HgN/A
1:20 AM37 °FPassing clouds.14 mph87%29.74 "HgN/A
12:50 AM37 °FPassing clouds.15 mph87%29.74 "HgN/A
12:20 AM37 °FPassing clouds.16 mph87%29.74 "HgN/A
11:50 PM
Jan 26
37 °FPassing clouds.16 mph87%29.74 "HgN/A
11:20 PM37 °FPassing clouds.16 mph87%29.74 "HgN/A
10:50 PM37 °FPassing clouds.15 mph87%29.74 "HgN/A
10:20 PM37 °FPassing clouds.13 mph87%29.74 "HgN/A
9:50 PM37 °FPassing clouds.10 mph87%29.74 "HgN/A
9:20 PM37 °FPassing clouds.9 mph87%29.74 "HgN/A
8:50 PM37 °FPassing clouds.10 mph87%29.74 "HgN/A
8:20 PM37 °FPassing clouds.10 mph93%29.74 "HgN/A
7:50 PM39 °FPassing clouds.10 mph87%29.74 "HgN/A
7:20 PM39 °FPassing clouds.12 mph87%29.74 "HgN/A
6:50 PM39 °FPassing clouds.10 mph93%29.74 "HgN/A
6:20 PM39 °FSprinkles. Partly cloudy.9 mph87%29.74 "HgN/A
5:50 PM39 °FOvercast.8 mph87%29.74 "HgN/A
5:20 PM39 °FDrizzle. Overcast.8 mph93%29.71 "HgN/A
4:50 PM37 °FLight rain. Low clouds.8 mph93%29.71 "Hg6 mi
4:20 PM37 °FLight rain. Partly sunny.6 mph93%29.71 "Hg3 mi
Weather by CustomWeather, © 2014

See weather overviewHow to use our weather pages